Tracking 29892 objects as of 21-Nov-2024
HD Live streaming from Space Station
objects crossing your sky now

STARLINK-1828

Track STARLINK-1828 now!
10-day predictions
STARLINK-1828 is classified as:


NORAD ID: 46725
Int'l Code: 2020-073BH
Perigee: 553.2 km
Apogee: 555.2 km
Inclination: 53.1 °
Period: 95.6 minutes
Semi major axis: 6925 km
RCS: Unknown
Launch date: October 18, 2020
Source: United States (US)
Launch site: AIR FORCE EASTERN TEST RANGE (AFETR)
Your satellite tracking list
Your tracking list is empty




NASA's NSSDC Master Catalog

Two Line Element Set (TLE):
1 46725U 20073BH  24325.13012011  .00021739  00000-0  14717-2 0  9995
2 46725  53.0531 226.9948 0001390  98.6961 261.4186 15.06452891225395
Source of the keplerian elements: AFSPC